Weather History for Grand Marais, MN

Change the Weather History Date:

Sunday, December 16, 2012

  Actual Average (KCKC) Record (KCKC)
Temperature  
Mean Temperature 34 °F -  
Max Temperature 39 °F 20 °F 37 °F (1997)
Min Temperature 28 °F 7 °F -23 °F (2008)
Degree Days  
Heating Degree Days 32    
Moisture  
Dew Point 29 °F    
Average Humidity 81    
Maximum Humidity 97    
Minimum Humidity 69    
Precipitation  
Precipitation 0.05 in - - ()
Sea Level Pressure  
Sea Level Pressure 29.58 in    
Wind  
Wind Speed 7 mph (NNW)    
Max Wind Speed 22 mph    
Max Gust Speed 37 mph    
Averages and records for this station are not official NWS values.
T = Trace of Precipitation, MM = Missing Value Source: NWS Daily Summary

Daily Weather History Graph

Daily Weather History Graph

Search for Another Location

Airport:

Trip Planner

Search our weather history database for the weather conditions in past years. The results will help you decide how hot, cold, wet, or windy it might be!

Date:

Astronomy

Dec. 16, 2012 Rise Set
Actual Time 7:44 AM CST 4:10 PM CST
Civil Twilight 7:08 AM CST 4:46 PM CST
Nautical Twilight 6:29 AM CST 5:25 PM CST
Astronomical Twilight 5:51 AM CST 6:03 PM CST
Moon 10:05 AM CST (12/16) 8:39 PM CST (12/16)
Length of Visible Light 9h 37m
Length of Day
8h 25m
Waxing Crescent, 16% of the Moon is Illuminated
Dec 16
Waxing Crescent
Dec 19
First Quarter
Dec 28
Full
Jan 4
Last Quarter
Jan 11
New

Hourly Weather History & Observations

Time (CST) Temp. Windchill Dew Point Humidity Pressure Visibility Wind Dir Wind Speed Gust Speed Precip Events Conditions
12:56 AM 37.9 °F - 36.0 °F 93% 29.55 in - Calm Calm - N/A   Unknown
1:56 AM 37.9 °F - 36.0 °F 93% 29.55 in - Calm Calm - 0.01 in   Unknown
3:56 AM 37.0 °F 33.3 °F 34.0 °F 89% 29.55 in - NNW 4.6 mph - 0.01 in   Unknown
4:56 AM 37.0 °F 34.5 °F 34.0 °F 89% 29.54 in - North 3.5 mph - 0.01 in   Unknown
5:56 AM 37.0 °F 33.3 °F 34.0 °F 89% 29.56 in - NNW 4.6 mph - 0.01 in   Unknown
6:56 AM 36.0 °F 33.3 °F 35.1 °F 97% 29.56 in - NNW 3.5 mph - N/A   Unknown
7:56 AM 36.0 °F - 35.1 °F 97% 29.56 in - Calm Calm - 0.01 in   Unknown
8:56 AM 37.0 °F - 34.0 °F 89% 29.57 in - Calm Calm - N/A   Unknown
9:56 AM 39.0 °F - 34.0 °F 82% 29.57 in - Calm Calm - N/A   Unknown
10:56 AM 39.0 °F 31.4 °F 33.1 °F 79% 29.57 in - NNW 12.7 mph 21.9 mph N/A   Unknown
11:56 AM 39.9 °F 33.4 °F 33.1 °F 77% 29.55 in - NNW 10.4 mph 25.3 mph N/A   Unknown
12:56 PM 39.0 °F 29.9 °F 33.1 °F 79% 29.56 in - NNW 17.3 mph 28.8 mph N/A   Unknown
1:56 PM 37.9 °F 30.5 °F 30.9 °F 76% 29.57 in - NNW 11.5 mph 20.7 mph N/A   Unknown
2:56 PM 36.0 °F 25.6 °F 28.9 °F 76% 29.57 in - NNW 18.4 mph 31.1 mph N/A   Unknown
3:56 PM 35.1 °F 24.8 °F 28.0 °F 76% 29.58 in - NNW 17.3 mph 31.1 mph N/A   Unknown
4:56 PM 33.1 °F 21.9 °F 26.1 °F 75% 29.60 in - NNW 18.4 mph 31.1 mph N/A   Unknown
5:56 PM 32.0 °F 20.5 °F 24.1 °F 73% 29.61 in - NNW 18.4 mph 34.5 mph N/A   Unknown
6:56 PM 30.9 °F 19.1 °F 23.0 °F 72% 29.62 in - NNW 18.4 mph 32.2 mph N/A   Unknown
7:56 PM 30.0 °F 18.3 °F 21.9 °F 72% 29.63 in - NNW 17.3 mph 34.5 mph N/A   Unknown
8:56 PM 28.9 °F 15.4 °F 21.0 °F 72% 29.63 in - NNW 21.9 mph 36.8 mph N/A   Unknown
9:56 PM 28.0 °F 14.6 °F 19.9 °F 72% 29.63 in - NNW 20.7 mph 35.7 mph N/A   Unknown
10:56 PM 28.0 °F 15.7 °F 19.9 °F 72% 29.63 in - NNW 17.3 mph 31.1 mph N/A   Unknown
11:56 PM 28.0 °F 17.0 °F 19.0 °F 69% 29.64 in - NNW 13.8 mph 27.6 mph N/A   Unknown